Weather History for KFHR - October, 2011

Change the Weather History Date:

Friday, October 28, 2011

  Actual Average Record
Temperature  
Mean Temperature 48 °F -  
Max Temperature 54 °F 51 °F 57 °F (2003)
Min Temperature 44 °F 38 °F 35 °F (2004)
Degree Days  
Heating Degree Days 16    
Moisture  
Dew Point 43 °F    
Average Humidity 80    
Maximum Humidity 89    
Minimum Humidity 59    
Precipitation  
Precipitation 0.37 in - - ()
Sea Level Pressure  
Sea Level Pressure 29.93 in    
Wind  
Wind Speed 6 mph (ESE)    
Max Wind Speed 20 mph    
Max Gust Speed 31 mph    
Visibility 8 miles    
Events Rain    
Averages and records for this station are not official NWS values.
T = Trace of Precipitation, MM = Missing Value Source: NWS Daily Summary

Daily Weather History Graph

Daily Weather History Graph

Search for Another Location

Airport or City:

Trip Planner

Search our weather history database for the weather conditions in past years. The results will help you decide how hot, cold, wet, or windy it might be!

Date:

Astronomy

Oct. 28, 2011 Rise Set
Actual Time 7:51 AM PDT 5:59 PM PDT
Civil Twilight 7:19 AM PDT 6:31 PM PDT
Nautical Twilight 6:42 AM PDT 7:08 PM PDT
Astronomical Twilight 6:06 AM PDT 7:44 PM PDT
Moon 10:28 AM PDT (10/28) 7:11 PM PDT (10/28)
Length of Visible Light 11h 12m
Length of Day
10h 07m
Waxing Crescent, 6% of the Moon is Illuminated
Oct 28
Waxing Crescent
Nov 2
First Quarter
Nov 10
Full
Nov 18
Last Quarter
Nov 24
New

Hourly Weather History & Observations

Time (PDT) Temp. Windchill Dew Point Humidity Pressure Visibility Wind Dir Wind Speed Gust Speed Precip Events Conditions
12:53 AM 44.1 °F - 39.9 °F 85% 30.05 in 10.0 mi Calm Calm - N/A   Clear
1:53 AM 44.1 °F 42.5 °F 39.9 °F 85% 30.05 in 10.0 mi North 3.5 mph - N/A   Partly Cloudy
2:53 AM 45.0 °F 38.9 °F 39.0 °F 80% 30.01 in 10.0 mi NE 12.7 mph - N/A   Overcast
3:53 AM 45.0 °F - 39.0 °F 80% 30.04 in 10.0 mi Calm Calm - N/A   Overcast
4:53 AM 46.9 °F - 39.0 °F 74% 30.00 in 10.0 mi NNE 3.5 mph - N/A   Overcast
5:53 AM 48.0 °F - 37.0 °F 66% 29.98 in 10.0 mi ENE 9.2 mph - N/A   Overcast
6:53 AM 48.9 °F - 37.9 °F 66% 29.94 in 10.0 mi ENE 4.6 mph - N/A   Overcast
7:53 AM 51.1 °F - 37.0 °F 59% 29.90 in 10.0 mi East 10.4 mph - N/A   Overcast
8:53 AM 53.1 °F - 39.0 °F 59% 29.89 in 10.0 mi East 9.2 mph 17.3 mph N/A   Overcast
9:53 AM 53.1 °F - 39.9 °F 61% 29.85 in 10.0 mi SE 18.4 mph 31.1 mph 0.00 in Rain Light Rain
10:53 AM 48.9 °F - 43.0 °F 80% 29.86 in 7.0 mi Variable 4.6 mph - 0.02 in Rain Light Rain
11:53 AM 51.1 °F - 43.0 °F 74% 29.84 in 5.0 mi ESE 19.6 mph 27.6 mph 0.05 in Rain Rain
12:53 PM 50.0 °F - 45.0 °F 83% 29.86 in 2.5 mi SE 10.4 mph - 0.09 in Rain Rain
1:22 PM 50.0 °F - 46.4 °F 87% 29.88 in 1.5 mi East 4.6 mph - 0.12 in Rain Rain
1:28 PM 50.0 °F - 46.4 °F 87% 29.87 in 3.0 mi Variable 5.8 mph - 0.13 in Rain Rain
1:48 PM 50.0 °F - 46.4 °F 87% 29.82 in 3.0 mi ESE 10.4 mph - 0.16 in Rain Rain
1:53 PM 50.0 °F - 46.9 °F 89% 29.82 in 5.0 mi ESE 13.8 mph - 0.17 in Rain Light Rain
2:06 PM 50.0 °F - 46.4 °F 87% 29.81 in 10.0 mi ESE 15.0 mph 21.9 mph 0.00 in   Mostly Cloudy
2:53 PM 50.0 °F - 46.0 °F 86% 29.86 in 7.0 mi ESE 9.2 mph 17.3 mph 0.02 in Rain Light Rain
3:24 PM 50.0 °F - 46.4 °F 87% 29.88 in 7.0 mi SSE 5.8 mph - 0.01 in Rain Light Rain
3:50 PM 51.8 °F - 48.2 °F 88% 29.86 in 10.0 mi SE 6.9 mph - 0.01 in   Scattered Clouds
3:53 PM 51.1 °F - 48.0 °F 89% 29.86 in 10.0 mi SSE 6.9 mph - 0.01 in   Mostly Cloudy
4:53 PM 51.1 °F - 48.0 °F 89% 29.88 in 10.0 mi SW 6.9 mph - N/A   Partly Cloudy
5:53 PM 51.1 °F - 46.9 °F 86% 29.91 in 10.0 mi WSW 3.5 mph - N/A   Scattered Clouds
6:53 PM 48.9 °F - 44.1 °F 83% 29.94 in 10.0 mi Calm Calm - N/A   Clear
7:53 PM 48.0 °F - 42.1 °F 80% 29.97 in 10.0 mi Calm Calm - N/A   Clear
8:53 PM 46.9 °F - 43.0 °F 86% 30.00 in 10.0 mi Variable 3.5 mph - N/A   Clear
9:53 PM 48.0 °F - 43.0 °F 83% 30.03 in 10.0 mi WSW 5.8 mph - N/A   Clear
10:53 PM 48.0 °F - 42.1 °F 80% 30.06 in 10.0 mi SW 5.8 mph - N/A   Clear
11:53 PM 48.9 °F - 43.0 °F 80% 30.09 in 10.0 mi WSW 4.6 mph - 0.01 in   Mostly Cloudy